This is the latest recevied weather packets stored in our database for station/object WE8L. If no packets are shown the sender has not sent any weather packets the latest 10 day(s).
| Time | Temp. | Humidity | Pressure | Rain* | Wind** | Luminosity | Snow |
|---|---|---|---|---|---|---|---|
| 1777754495 | 12.22° C | 41% | 1019.2 hPa | 0 mm | - | 63 W/m² | - |
| 1777754192 | 12.22° C | 41% | 1019.1 hPa | 0 mm | - | 64 W/m² | - |
| 1777753890 | 11.67° C | 40% | 1019.2 hPa | 0 mm | - | 83 W/m² | - |
| 1777753585 | 11.67° C | 41% | 1019.2 hPa | 0 mm | - | 76 W/m² | - |
| 1777753283 | 12.22° C | 38% | 1019.3 hPa | 0 mm | - | 69 W/m² | - |
| 1777752979 | 11.11° C | 41% | 1019.2 hPa | 0 mm | - | 83 W/m² | - |
| 1777752676 | 11.67° C | 40% | 1019.3 hPa | 0 mm | - | 86 W/m² | - |
| 1777752372 | 11.67° C | 40% | 1019.4 hPa | 0 mm | - | 84 W/m² | - |
| 1777752070 | 11.11° C | 39% | 1019.4 hPa | 0 mm | - | 80 W/m² | - |
| 1777751768 | 11.67° C | 40% | 1019.4 hPa | 0 mm | - | 83 W/m² | - |
| 1777751463 | 11.67° C | 40% | 1019.5 hPa | 0 mm | - | 86 W/m² | - |
| 1777751160 | 11.67° C | 39% | 1019.5 hPa | 0 mm | - | 84 W/m² | - |
| 1777750856 | 12.22° C | 42% | 1019.5 hPa | 0 mm | - | 79 W/m² | - |
| 1777750554 | 11.67° C | 43% | 1019.5 hPa | 0 mm | - | 81 W/m² | - |
| 1777750250 | 12.22° C | 40% | 1019.4 hPa | 0 mm | - | 279 W/m² | - |
| 1777749946 | 12.78° C | 41% | 1019.6 hPa | 0 mm | - | 378 W/m² | - |
| 1777749644 | 12.78° C | 42% | 1019.6 hPa | 0 mm | - | 470 W/m² | - |
| 1777749340 | 11.67° C | 39% | 1019.6 hPa | 0 mm | - | 649 W/m² | - |
| 1777749038 | 11.67° C | 43% | 1019.6 hPa | 0 mm | - | 467 W/m² | - |
| 1777748736 | 11.67° C | 40% | 1019.6 hPa | 0 mm | - | 81 W/m² | - |
| 1777748432 | 12.22° C | 40% | 1019.8 hPa | 0 mm | - | 742 W/m² | - |
| 1777748127 | 11.67° C | 40% | 1019.9 hPa | 0 mm | - | 601 W/m² | - |
| 1777747824 | 11.67° C | 41% | 1019.9 hPa | 0 mm | - | 180 W/m² | - |
| 1777747520 | 12.22° C | 41% | 1019.8 hPa | 0 mm | - | 98 W/m² | - |
| 1777747216 | 11.67° C | 42% | 1019.6 hPa | 0 mm | - | 812 W/m² | - |
* Rain latest hour (hover to see other rain measurements)
** Current wind speed in m/s (hover to see current wind gust speed)